Location: Unspecified
(0.0000°N, 0.0000°E)
Time: 07:56:55
(UTC+02:00)

HST - Visible Passes

Search period start: 30 September 2014 00:00
Search period end: 10 October 2014 00:00
Orbit: 547 x 551 km, 28.5° (Epoch: 28 September)

Date Brightness Start Highest point End Pass type
(mag) Time Alt. Az. Time Alt. Az. Time Alt. Az.
30 Sep 1.3 06:15:45 49° NNE 06:15:45 49° NNE 06:19:08 10° NE visible
01 Oct 2.4 06:09:37 26° NNE 06:09:37 26° NNE 06:11:51 10° NE visible
02 Oct 3.1 06:03:25 15° NNE 06:03:25 15° NNE 06:04:25 10° NNE visible
